Location: Girdwood
(60.9430°N, 149.1660°W)
Time: 05:06:21
(UTC-09:00)

Amateur Radio Satellites - All Passes

Search period start: 21 November 2017 04:36
Search period end: 22 November 2017 04:36
Location: Girdwood, 60.9430°N, 149.1660°W

Satellite Date Start Highest point End Downlink Frequencies (MHz)
Time Altitude Azimuth
ITAMSAT 1 21 Nov 04:38:40 04:43:45 47° 100° (E) 04:48:47 435.822/435.867
MOZHAYETS 4 21 Nov 04:42:28 04:45:29 17° 275° (W) 04:48:32
PCSat 21 Nov 04:47:55 04:53:13 49° 345° (NNW) 04:58:31 145.827
Gurwin Techsat 1B 21 Nov 04:51:01 04:55:48 34° 307° (NW) 05:00:33 435.225
CUBESAT XI-V 21 Nov 04:51:58 04:56:15 37° 264° (W) 05:00:36 437.345
KKS-1 21 Nov 04:55:03 04:59:33 85° 253° (WSW) 05:04:05 437.445
BEESAT 2 21 Nov 05:08:47 05:12:20 29° 129° (SE) 05:15:53 435.950
DOVE 4 21 Nov 05:16:56 05:21:37 31° 90° (E) 05:26:08 437.250
STARS 21 Nov 05:19:16 05:23:43 79° 70° (ENE) 05:28:11 437.465
FO-29 21 Nov 05:29:22 05:35:03 25° 31° (NNE) 05:41:01 435.910
BEESAT 3 21 Nov 05:34:07 05:38:09 77° 144° (SE) 05:42:10 437.485
AO-7 21 Nov 05:44:41 05:53:05 86° 299° (WNW) 06:01:28 .
STRAND 1 21 Nov 05:46:23 05:51:00 34° 53° (NE) 05:55:37 437.568
M-CUBED/EXP-1 PRIME 21 Nov 05:47:17 05:51:19 38° 309° (NW) 05:55:31 437.505
SO-50 21 Nov 05:48:57 05:53:31 66° 217° (SW) 05:58:09 436.795
HO-68 21 Nov 05:50:10 05:52:19 11° 70° (ENE) 05:54:29 435.675
XW-2C 21 Nov 05:55:44 05:57:51 14° 85° (E) 05:59:58 145.795 - 145.815
RS-15 21 Nov 05:57:07 06:06:43 30° 255° (WSW) 06:15:58 29.354- 29.394
LilacSat-2 21 Nov 05:57:35 05:59:58 16° 86° (E) 06:02:19 437.200
AO-85 21 Nov 06:04:00 06:07:41 36° 131° (SE) 06:11:35 145.980
XW-2F 21 Nov 06:06:10 06:08:38 16° 87° (E) 06:11:05 145.980 - 146.000
Oscar 19 21 Nov 06:06:12 06:08:49 14° 328° (NNW) 06:11:27 437.125/150
CUTE-I 21 Nov 06:11:05 06:15:07 21° 86° (E) 06:19:07 437.470
ITAMSAT 1 21 Nov 06:18:17 06:23:18 47° 302° (WNW) 06:28:16 435.822/435.867
YUBILEINY 21 Nov 06:19:20 06:27:55 62° 93° (E) 06:36:36 435.215
Gurwin Techsat 1B 21 Nov 06:31:46 06:34:26 14° 331° (NNW) 06:37:06 435.225
PCSat 21 Nov 06:32:14 06:37:29 47° 10° (N) 06:42:45 145.827
KKS-1 21 Nov 06:33:37 06:36:47 19° 273° (W) 06:39:59 437.445
KAITUO 1B 21 Nov 06:33:38 06:36:39 22° 91° (E) 06:39:39 145.475/437.950
BEESAT 2 21 Nov 06:45:40 06:49:45 87° 331° (NNW) 06:53:51 435.950
XW-2D 21 Nov 06:48:29 06:52:03 37° 97° (E) 06:55:36 145.860 - 145.880
DOVE 4 21 Nov 06:54:26 06:59:44 70° 292° (WNW) 07:04:51 437.250
STARS 21 Nov 06:57:05 07:00:35 22° 270° (W) 07:04:06 437.465
CUBEBUG 2 21 Nov 06:57:33 06:59:12 12° 80° (E) 07:00:51 437.445
XW-2B 21 Nov 07:03:16 07:06:58 47° 100° (E) 07:10:40 145.730 - 145.750
UNISAT 6 21 Nov 07:09:52 07:12:08 14° 41° (NE) 07:14:23 437.425
FO-29 21 Nov 07:11:47 07:18:38 52° 56° (NE) 07:26:06 435.910
BEESAT 3 21 Nov 07:11:58 07:15:55 51° 349° (N) 07:19:50 437.485
TIGRISAT 21 Nov 07:14:10 07:16:27 14° 41° (NE) 07:18:42 435.000
NUDT-PHONESAT 21 Nov 07:17:51 07:21:28 48° 100° (E) 07:25:05 437.300
M-CUBED/EXP-1 PRIME 21 Nov 07:22:25 07:24:48 15° 330° (NNW) 07:27:15 437.505
STRAND 1 21 Nov 07:24:48 07:29:57 69° 255° (WSW) 07:35:07 437.568
XW-2C 21 Nov 07:28:51 07:32:41 79° 105° (ESE) 07:36:30 145.795 - 145.815
SO-50 21 Nov 07:29:55 07:33:21 21° 239° (WSW) 07:36:49 436.795
LilacSat-2 21 Nov 07:30:58 07:34:50 86° 106° (ESE) 07:38:41 437.200
CUTE 1.7 + AOD 2 21 Nov 07:35:01 07:38:55 33° 95° (E) 07:42:47 437.475
HO-68 21 Nov 07:35:38 07:42:21 39° 95° (E) 07:49:01 435.675
AO-7 21 Nov 07:37:39 07:45:12 40° 323° (NW) 07:52:45 .
XW-2F 21 Nov 07:39:29 07:43:18 89° 279° (W) 07:47:06 145.980 - 146.000
AO-85 21 Nov 07:43:46 07:47:51 77° 334° (NNW) 07:52:15 145.980
ZACube-1 21 Nov 07:44:23 07:45:47 11° 80° (E) 07:47:12 437.345
CUTE-I 21 Nov 07:50:36 07:56:02 80° 108° (ESE) 08:01:25 437.470
UWE-3 21 Nov 07:53:09 07:56:20 21° 88° (E) 07:59:29 435.000/436.395/437.385
ITAMSAT 1 21 Nov 07:58:25 08:01:45 17° 324° (NW) 08:05:04 435.822/435.867
SEEDS 21 Nov 08:05:13 08:09:14 39° 97° (E) 08:13:14 437.485
PRISM 21 Nov 08:06:28 08:08:56 15° 44° (NE) 08:11:23 437.425
KAITUO 1B 21 Nov 08:07:14 08:10:58 62° 291° (WNW) 08:14:42 145.475/437.950
AAUSAT CUBESAT 2 21 Nov 08:11:47 08:15:17 25° 91° (E) 08:18:48 437.432
PCSat 21 Nov 08:15:59 08:21:28 82° 35° (NE) 08:26:56 145.827
YUBILEINY 21 Nov 08:16:32 08:25:06 53° 299° (WNW) 08:33:46 435.215
XW-2D 21 Nov 08:22:43 08:26:15 37° 298° (WNW) 08:29:48 145.860 - 145.880
BEESAT 2 21 Nov 08:23:50 08:27:48 49° 353° (N) 08:31:47 435.950
CUBEBUG 2 21 Nov 08:32:35 08:36:48 60° 102° (ESE) 08:40:55 437.445
DOVE 4 21 Nov 08:32:38 08:36:40 23° 314° (NW) 08:40:38 437.250
AO-73 21 Nov 08:33:58 08:37:23 24° 91° (E) 08:40:48 145.935
XW-2B 21 Nov 08:37:40 08:41:02 30° 301° (WNW) 08:44:25 145.730 - 145.750
XW-2A 21 Nov 08:37:50 08:41:01 38° 99° (E) 08:44:10 145.665 - 145.685
UNISAT 6 21 Nov 08:43:39 08:47:57 45° 63° (ENE) 08:52:11 437.425
TIGRISAT 21 Nov 08:47:57 08:52:15 45° 63° (ENE) 08:56:29 435.000
BEESAT 3 21 Nov 08:50:00 08:53:57 52° 12° (NNE) 08:57:51 437.485
Oscar 11 21 Nov 08:50:06 08:53:44 25° 91° (E) 08:57:21 .
NUDT-PHONESAT 21 Nov 08:51:58 08:55:11 29° 301° (WNW) 08:58:26 437.300
FO-29 21 Nov 08:56:40 09:03:37 62° 260° (W) 09:11:18 435.910
XW-2C 21 Nov 09:03:36 09:06:29 21° 306° (NW) 09:09:23 145.795 - 145.815
LilacSat-2 21 Nov 09:05:52 09:08:41 20° 307° (NW) 09:11:30 437.200
STRAND 1 21 Nov 09:06:45 09:10:07 17° 277° (W) 09:13:30 437.568
CUTE 1.7 + AOD 2 21 Nov 09:10:48 09:14:56 50° 295° (WNW) 09:19:04 437.475
QB50P2 21 Nov 09:10:51 09:12:35 12° 39° (NE) 09:14:20 145.880/145.840
XW-2F 21 Nov 09:14:16 09:16:57 19° 308° (NW) 09:19:38 145.980 - 146.000
ZACube-1 21 Nov 09:18:54 09:23:02 57° 102° (ESE) 09:27:07 437.345
HO-68 21 Nov 09:23:28 09:30:41 74° 298° (WNW) 09:37:50 435.675
AO-85 21 Nov 09:24:33 09:28:40 51° 359° (N) 09:33:06 145.980
UWE-3 21 Nov 09:29:08 09:33:20 77° 289° (WNW) 09:37:28 435.000/436.395/437.385
AO-7 21 Nov 09:29:43 09:36:09 26° 349° (N) 09:42:36 .
CUTE-I 21 Nov 09:31:01 09:35:44 31° 310° (NW) 09:40:25 437.470
PRISM 21 Nov 09:39:23 09:43:27 56° 65° (ENE) 09:47:33 437.425
SEEDS 21 Nov 09:40:58 09:44:59 42° 298° (WNW) 09:49:00 437.485
KAITUO 1B 21 Nov 09:42:12 09:44:18 15° 312° (NW) 09:46:24 145.475/437.950
EO-88 21 Nov 09:43:24 09:44:42 12° 83° (E) 09:46:00 145.990 - 145.960
Max Valier Satellite 21 Nov 09:44:51 09:47:05 15° 87° (E) 09:49:19 145.860
AAUSAT CUBESAT 2 21 Nov 09:46:57 09:51:07 64° 291° (WNW) 09:55:16 437.432
Gurwin Techsat 1B 21 Nov 09:48:58 09:50:09 11° 20° (NNE) 09:51:21 435.225
AIST 2D 21 Nov 09:56:11 09:59:09 27° 60° (ENE) 10:02:10 435.315
DUCHIFAT 1 21 Nov 09:58:35 10:01:27 18° 47° (NE) 10:04:19 145.980
XW-2D 21 Nov 09:59:00 09:59:31 10° 319° (NW) 10:00:03 145.860 - 145.880
PCSat 21 Nov 09:59:38 10:04:34 36° 238° (WSW) 10:09:29 145.827
BEESAT 2 21 Nov 10:01:59 10:06:02 58° 17° (NNE) 10:10:02 435.950
EO-79 21 Nov 10:05:37 10:08:56 23° 51° (NE) 10:12:15 145.935-145.965
NANOSAT C BR1 21 Nov 10:08:46 10:12:02 22° 51° (NE) 10:15:16 145.865
CUBEBUG 2 21 Nov 10:09:33 10:13:14 29° 304° (NW) 10:16:50 437.445
AO-73 21 Nov 10:09:54 10:14:01 65° 292° (WNW) 10:18:08 145.935
XW-2A 21 Nov 10:10:41 10:13:40 30° 299° (WNW) 10:16:39 145.665 - 145.685
DELFI C3 21 Nov 10:15:21 10:19:06 36° 96° (E) 10:22:49 145.870
YUBILEINY 21 Nov 10:17:26 10:24:23 25° 329° (NNW) 10:31:24 435.215
UNISAT 6 21 Nov 10:20:31 10:24:47 39° 263° (W) 10:28:58 437.425
POLYITAN 1 21 Nov 10:20:37 10:24:13 27° 55° (NE) 10:27:48 437.675
TIGRISAT 21 Nov 10:24:49 10:29:03 39° 263° (W) 10:33:13 435.000
Oscar 11 21 Nov 10:25:57 10:30:16 66° 292° (WNW) 10:34:33 .
BEESAT 3 21 Nov 10:27:41 10:31:42 76° 215° (SW) 10:35:40 437.485
QB50P2 21 Nov 10:43:27 10:47:25 40° 61° (ENE) 10:51:24 145.880/145.840
FO-29 21 Nov 10:45:12 10:50:21 21° 285° (WNW) 10:55:50 435.910
CUTE 1.7 + AOD 2 21 Nov 10:47:40 10:49:57 14° 317° (NW) 10:52:15 437.475
BUGSAT 1 21 Nov 10:50:15 10:52:58 17° 47° (NE) 10:55:40 437.445
ZACube-1 21 Nov 10:55:32 10:59:08 29° 303° (WNW) 11:02:44 437.345
Oscar 19 21 Nov 10:57:22 11:00:58 20° 41° (NE) 11:04:34 437.125/150
AO-85 21 Nov 11:05:12 11:09:31 70° 22° (NNE) 11:14:13 145.980
UWE-3 21 Nov 11:06:18 11:09:14 19° 311° (NW) 11:12:09 435.000/436.395/437.385
HO-68 21 Nov 11:11:27 11:17:35 32° 322° (NW) 11:23:42 435.675
CUTE-I 21 Nov 11:11:52 11:14:23 13° 333° (NNW) 11:16:53 437.470
PRISM 21 Nov 11:15:22 11:18:59 29° 266° (W) 11:22:39 437.425
EO-88 21 Nov 11:15:25 11:19:05 66° 104° (ESE) 11:22:44 145.990 - 145.960
Max Valier Satellite 21 Nov 11:17:47 11:21:28 90° 339° (NNW) 11:25:10 145.860
SEEDS 21 Nov 11:17:55 11:19:45 13° 319° (NW) 11:21:34 437.485
AO-7 21 Nov 11:20:07 11:26:43 28° 17° (NNE) 11:33:21 .
AAUSAT CUBESAT 2 21 Nov 11:23:13 11:25:54 17° 313° (NW) 11:28:34 437.432
Gurwin Techsat 1B 21 Nov 11:24:23 11:28:27 23° 43° (NE) 11:32:33 435.225
AIST 2D 21 Nov 11:28:50 11:32:12 46° 260° (W) 11:35:36 435.315
DUCHIFAT 1 21 Nov 11:32:19 11:36:30 70° 69° (ENE) 11:40:43 145.980
LO-87 21 Nov 11:39:07 11:42:04 24° 92° (E) 11:45:01 145.935 - 145.965
BEESAT 2 21 Nov 11:39:50 11:43:51 60° 219° (SW) 11:47:50 435.950
EO-79 21 Nov 11:40:01 11:44:17 86° 256° (WSW) 11:48:32 145.935-145.965
ESTCUBE 1 21 Nov 11:40:34 11:44:16 24° 90° (E) 11:47:56 437.505/2401.250
NANOSAT C BR1 21 Nov 11:43:03 11:47:18 89° 263° (W) 11:51:32 145.865
AO-73 21 Nov 11:47:00 11:49:36 16° 313° (NW) 11:52:13 145.935
DELFI C3 21 Nov 11:50:07 11:53:56 42° 297° (WNW) 11:57:43 145.870
POLYITAN 1 21 Nov 11:55:31 11:59:45 67° 256° (WSW) 12:03:58 437.675
M-CUBED/EXP-1 PRIME 21 Nov 12:00:39 12:03:29 19° 37° (NE) 12:06:28 437.505
Oscar 11 21 Nov 12:02:52 12:05:45 18° 313° (NW) 12:08:38 .
BEESAT 3 21 Nov 12:05:41 12:08:44 21° 236° (SW) 12:11:46 437.485
QB50P2 21 Nov 12:19:13 12:23:15 41° 262° (W) 12:27:18 145.880/145.840
YUBILEINY 21 Nov 12:19:31 12:25:17 18° 2° (N) 12:31:04 435.215
BUGSAT 1 21 Nov 12:23:32 12:27:42 66° 68° (ENE) 12:31:49 437.445
Oscar 19 21 Nov 12:34:26 12:39:28 58° 63° (ENE) 12:44:31 437.125/150
AO-85 21 Nov 12:45:37 12:49:54 47° 224° (SW) 12:54:31 145.980
EO-88 21 Nov 12:49:32 12:52:26 22° 304° (NW) 12:55:20 145.990 - 145.960
ITAMSAT 1 21 Nov 12:50:57 12:54:21 18° 36° (NE) 12:57:45 435.822/435.867
Max Valier Satellite 21 Nov 12:52:17 12:54:51 18° 308° (NW) 12:57:24 145.860
SPROUT 21 Nov 12:54:10 12:57:56 29° 94° (E) 13:01:40 437.525
HO-68 21 Nov 12:58:45 13:03:27 19° 348° (NNW) 13:08:09 435.675
Gurwin Techsat 1B 21 Nov 13:02:24 13:07:42 69° 65° (ENE) 13:13:01 435.225
DUCHIFAT 1 21 Nov 13:09:12 13:12:36 23° 269° (W) 13:16:01 145.980
AO-7 21 Nov 13:10:07 13:17:53 47° 43° (NE) 13:25:42 .
LO-87 21 Nov 13:12:15 13:15:44 51° 293° (WNW) 13:19:11 145.935 - 145.965
ESTCUBE 1 21 Nov 13:17:01 13:21:34 76° 291° (WNW) 13:26:06 437.505/2401.250
EO-79 21 Nov 13:17:47 13:20:41 18° 273° (W) 13:23:35 145.935-145.965
BEESAT 2 21 Nov 13:18:19 13:20:54 16° 240° (WSW) 13:23:28 435.950
NANOSAT C BR1 21 Nov 13:20:41 13:23:37 18° 273° (W) 13:26:34 145.865
DOVE 4 21 Nov 13:22:31 13:23:38 11° 25° (NNE) 13:24:44 437.250
DELFI C3 21 Nov 13:26:16 13:27:47 12° 318° (NW) 13:29:17 145.870
M-CUBED/EXP-1 PRIME 21 Nov 13:33:29 13:37:15 67° 60° (ENE) 13:41:21 437.505
POLYITAN 1 21 Nov 13:34:09 13:36:21 14° 277° (W) 13:38:33 437.675
VELOX 1 21 Nov 13:35:38 13:39:55 43° 99° (E) 13:44:11 145.980
O/OREOS (USA 219) 21 Nov 13:39:43 13:42:51 18° 103° (ESE) 13:46:00 437.305
BUGSAT 1 21 Nov 14:00:00 14:03:26 24° 268° (W) 14:06:51 437.445
Oscar 19 21 Nov 14:14:21 14:19:04 36° 265° (W) 14:23:50 437.125/150
YUBILEINY 21 Nov 14:18:51 14:26:04 27° 35° (NE) 14:33:17 435.215
DX 1 21 Nov 14:19:51 14:23:50 32° 95° (E) 14:27:48 434.975-435.025
AO-85 21 Nov 14:27:08 14:29:29 14° 244° (WSW) 14:31:57 145.980
ITAMSAT 1 21 Nov 14:27:48 14:32:50 48° 59° (ENE) 14:37:52 435.822/435.867
CUTE-I 21 Nov 14:28:28 14:30:17 12° 22° (NNE) 14:32:07 437.470
SPROUT 21 Nov 14:29:54 14:34:06 56° 295° (WNW) 14:38:16 437.525
Gurwin Techsat 1B 21 Nov 14:43:22 14:48:06 32° 267° (W) 14:52:52 435.225
HO-68 21 Nov 14:44:09 14:48:55 19° 14° (NNE) 14:53:41 435.675
LO-87 21 Nov 14:47:00 14:48:25 12° 314° (NW) 14:49:49 145.935 - 145.965
MOZHAYETS 4 21 Nov 14:48:38 14:51:01 14° 82° (E) 14:53:22
50 SAT 21 Nov 14:51:57 14:55:12 62° 104° (ESE) 14:58:25 437.505
ESTCUBE 1 21 Nov 14:54:26 14:57:48 21° 312° (NW) 15:01:08 437.505/2401.250
DOVE 4 21 Nov 14:55:32 14:59:42 25° 48° (NE) 15:03:56 437.250
UKube-1 21 Nov 15:00:54 15:05:07 46° 100° (E) 15:09:18 .
AO-7 21 Nov 15:02:01 15:10:20 79° 247° (WSW) 15:18:44 .
M-CUBED/EXP-1 PRIME 21 Nov 15:09:00 15:12:05 23° 262° (W) 15:15:24 437.505
VELOX 1 21 Nov 15:12:11 15:16:25 42° 300° (WNW) 15:20:37 145.980
O/OREOS (USA 219) 21 Nov 15:16:59 15:21:36 75° 125° (SE) 15:26:13 437.305
KAITUO 1B 21 Nov 15:51:49 15:53:01 11° 43° (NE) 15:54:14 145.475/437.950
DX 1 21 Nov 15:55:57 16:00:16 53° 297° (WNW) 16:04:32 434.975-435.025
CUTE-I 21 Nov 16:04:25 16:08:46 26° 46° (NE) 16:13:07 437.470
XW-2D 21 Nov 16:06:33 16:09:01 17° 50° (NE) 16:11:29 145.860 - 145.880
SPROUT 21 Nov 16:06:42 16:09:14 16° 316° (NW) 16:11:47 437.525
BEESAT 21 Nov 16:07:02 16:11:28 37° 97° (E) 16:15:54 436.000
ITAMSAT 1 21 Nov 16:07:22 16:12:23 46° 260° (W) 16:17:28 435.822/435.867
YUBILEINY 21 Nov 16:16:22 16:25:08 58° 64° (ENE) 16:33:51 435.215
ITUPSAT 1 21 Nov 16:17:03 16:21:38 43° 99° (E) 16:26:10 437.325
XW-2B 21 Nov 16:20:58 16:23:45 20° 53° (NE) 16:26:34 145.730 - 145.750
50 SAT 21 Nov 16:24:34 16:27:01 20° 305° (NW) 16:29:27 437.505
MOZHAYETS 4 21 Nov 16:24:34 16:29:08 62° 103° (ESE) 16:33:40
HO-68 21 Nov 16:28:36 16:34:49 33° 39° (NE) 16:41:04 435.675
CUBEBUG 2 21 Nov 16:31:14 16:32:34 11° 38° (NE) 16:33:53 437.445
DOVE 4 21 Nov 16:31:33 16:36:44 78° 69° (ENE) 16:42:05 437.250
NUDT-PHONESAT 21 Nov 16:33:38 16:36:18 19° 53° (NE) 16:38:59 437.300
UKube-1 21 Nov 16:37:05 16:41:07 38° 301° (WNW) 16:45:08 .
CUBESAT XI-V 21 Nov 16:37:31 16:41:39 30° 92° (E) 16:45:47 437.345
KKS-1 21 Nov 16:38:19 16:38:48 10° 79° (ENE) 16:39:16 437.445
XW-2C 21 Nov 16:45:56 16:49:13 29° 59° (ENE) 16:52:33 145.795 - 145.815
LilacSat-2 21 Nov 16:48:31 16:51:54 32° 60° (ENE) 16:55:19 437.200
VELOX 1 21 Nov 16:49:41 16:51:54 14° 322° (NW) 16:54:06 145.980
XW-2F 21 Nov 16:55:59 16:59:22 33° 61° (ENE) 17:02:46 145.980 - 146.000
O/OREOS (USA 219) 21 Nov 16:57:09 17:01:25 36° 328° (NNW) 17:05:42 437.305
AO-7 21 Nov 16:57:31 17:04:28 29° 272° (W) 17:11:28 .
CUTE 1.7 + AOD 2 21 Nov 17:02:56 17:05:58 20° 50° (NE) 17:09:02 437.475
KAITUO 1B 21 Nov 17:22:38 17:26:10 44° 65° (ENE) 17:29:45 145.475/437.950
UWE-3 21 Nov 17:25:15 17:27:48 16° 45° (NE) 17:30:19 435.000/436.395/437.385
SEEDS 21 Nov 17:31:58 17:35:12 22° 52° (NE) 17:38:28 437.485
DX 1 21 Nov 17:32:59 17:35:39 16° 318° (NW) 17:38:18 434.975-435.025
NO-84 21 Nov 17:34:12 17:37:27 24° 155° (SSE) 17:40:49 435.350 FM
AAUSAT CUBESAT 2 21 Nov 17:37:54 17:40:23 16° 45° (NE) 17:42:53 437.432
XW-2D 21 Nov 17:38:54 17:42:39 78° 71° (ENE) 17:46:27 145.860 - 145.880
CUTE-I 21 Nov 17:42:50 17:48:13 79° 68° (ENE) 17:53:38 437.470
BEESAT 21 Nov 17:44:49 17:49:27 52° 298° (WNW) 17:54:03 436.000
XW-2A 21 Nov 17:47:26 17:49:10 14° 50° (NE) 17:50:53 145.665 - 145.685
ITAMSAT 1 21 Nov 17:51:33 17:53:14 11° 283° (WNW) 17:54:57 435.822/435.867
XW-2B 21 Nov 17:53:47 17:57:32 81° 254° (WSW) 18:01:21 145.730 - 145.750
ITUPSAT 1 21 Nov 17:54:59 17:59:32 46° 300° (WNW) 18:04:05 437.325
MOZHAYETS 4 21 Nov 18:02:03 18:06:05 32° 304° (NW) 18:10:08
CUBEBUG 2 21 Nov 18:04:04 18:08:09 35° 59° (ENE) 18:12:07 437.445
AO-73 21 Nov 18:04:37 18:07:18 17° 47° (NE) 18:09:57 145.935
NUDT-PHONESAT 21 Nov 18:06:04 18:09:44 82° 254° (WSW) 18:13:27 437.300
DOVE 4 21 Nov 18:10:31 18:14:57 28° 272° (W) 18:19:31 437.250
KKS-1 21 Nov 18:12:09 18:16:31 47° 100° (E) 18:20:50 437.445
YUBILEINY 21 Nov 18:13:32 18:22:05 56° 270° (W) 18:30:37 435.215
UKube-1 21 Nov 18:14:20 18:16:09 12° 323° (NW) 18:17:56 .
HO-68 21 Nov 18:14:37 18:21:49 78° 64° (ENE) 18:29:04 435.675
CUBESAT XI-V 21 Nov 18:14:44 18:19:23 62° 294° (WNW) 18:24:01 437.345
XW-2C 21 Nov 18:19:39 18:23:17 48° 260° (W) 18:26:58 145.795 - 145.815
Oscar 11 21 Nov 18:20:11 18:23:00 17° 46° (NE) 18:25:51 .
RS-15 21 Nov 18:21:49 18:31:13 27° 101° (ESE) 18:40:30 29.354- 29.394
LilacSat-2 21 Nov 18:22:30 18:26:07 43° 261° (W) 18:29:46 437.200
XW-2F 21 Nov 18:29:53 18:33:26 41° 262° (W) 18:37:02 145.980 - 146.000
STARS 21 Nov 18:34:38 18:38:45 36° 97° (E) 18:42:49 437.465
CUTE 1.7 + AOD 2 21 Nov 18:37:03 18:41:15 80° 73° (ENE) 18:45:32 437.475
O/OREOS (USA 219) 21 Nov 18:38:27 18:42:03 22° 353° (N) 18:45:37 437.305
ZACube-1 21 Nov 18:48:39 18:52:25 32° 58° (ENE) 18:56:09 437.345
KAITUO 1B 21 Nov 18:57:02 19:00:19 29° 266° (W) 19:03:38 145.475/437.950
UWE-3 21 Nov 18:59:15 19:03:32 56° 66° (ENE) 19:07:44 435.000/436.395/437.385
SEEDS 21 Nov 19:06:15 19:10:28 87° 258° (WSW) 19:14:42 437.485
NO-84 21 Nov 19:10:25 19:14:09 36° 177° (S) 19:18:03 435.350 FM
AAUSAT CUBESAT 2 21 Nov 19:11:02 19:15:06 58° 67° (ENE) 19:19:14 437.432
XW-2D 21 Nov 19:14:42 19:17:20 18° 272° (W) 19:19:59 145.860 - 145.880
XW-2A 21 Nov 19:17:59 19:21:18 71° 70° (ENE) 19:24:39 145.665 - 145.685
BEESAT 21 Nov 19:23:21 19:26:21 17° 320° (NW) 19:29:21 436.000
CUTE-I 21 Nov 19:24:16 19:28:51 28° 270° (W) 19:33:29 437.470
STRAND 1 21 Nov 19:25:12 19:29:07 21° 87° (E) 19:33:00 437.568
XW-2B 21 Nov 19:30:16 19:32:21 14° 275° (W) 19:34:28 145.730 - 145.750
ITUPSAT 1 21 Nov 19:33:39 19:36:24 15° 322° (NW) 19:39:10 437.325
DELFI C3 21 Nov 19:36:43 19:39:32 19° 50° (NE) 19:42:21 145.870
AO-73 21 Nov 19:38:41 19:42:53 64° 68° (ENE) 19:47:03 145.935
CUBEBUG 2 21 Nov 19:40:17 19:44:41 51° 260° (W) 19:48:59 437.445
MOZHAYETS 4 21 Nov 19:40:47 19:42:03 11° 327° (NNW) 19:43:20
NUDT-PHONESAT 21 Nov 19:42:13 19:44:13 14° 275° (W) 19:46:14 437.300
KKS-1 21 Nov 19:48:52 19:53:04 39° 301° (WNW) 19:57:13 437.445
CUBESAT XI-V 21 Nov 19:52:50 19:56:02 19° 315° (NW) 19:59:14 437.345
Oscar 11 21 Nov 19:54:13 19:58:29 65° 68° (ENE) 20:02:47 .
FO-29 21 Nov 19:54:54 20:00:52 23° 77° (ENE) 20:06:42 435.910
HO-68 21 Nov 20:03:39 20:10:14 37° 267° (W) 20:16:51 435.675
STARS 21 Nov 20:10:58 20:15:14 48° 298° (WNW) 20:19:27 437.465
YUBILEINY 21 Nov 20:11:15 20:16:59 20° 296° (WNW) 20:22:44 435.215
CUTE 1.7 + AOD 2 21 Nov 20:14:26 20:17:38 21° 272° (W) 20:20:51 437.475
O/OREOS (USA 219) 21 Nov 20:19:04 20:22:53 25° 18° (NNE) 20:26:40 437.305
ZACube-1 21 Nov 20:24:23 20:28:35 54° 259° (W) 20:32:43 437.345
RS-15 21 Nov 20:29:24 20:41:26 63° 129° (SE) 20:53:13 29.354- 29.394
EO-88 21 Nov 20:29:33 20:32:31 24° 56° (ENE) 20:35:29 145.990 - 145.960
Max Valier Satellite 21 Nov 20:32:36 20:35:50 31° 60° (ENE) 20:39:06 145.860
UWE-3 21 Nov 20:36:24 20:40:16 30° 266° (W) 20:44:04 435.000/436.395/437.385
SEEDS 21 Nov 20:43:57 20:46:47 18° 274° (W) 20:49:40 437.485
NO-84 21 Nov 20:47:19 20:50:57 30° 198° (SSW) 20:54:40 435.350 FM
AAUSAT CUBESAT 2 21 Nov 20:47:19 20:50:53 27° 268° (W) 20:54:28 437.432
XW-2A 21 Nov 20:52:12 20:54:25 16° 271° (W) 20:56:39 145.665 - 145.685
LO-87 21 Nov 20:53:38 20:54:52 11° 45° (NE) 20:56:06 145.935 - 145.965
STRAND 1 21 Nov 21:03:53 21:09:05 85° 109° (ESE) 21:14:12 437.568
DELFI C3 21 Nov 21:09:45 21:13:45 81° 70° (ENE) 21:17:47 145.870
ESTCUBE 1 21 Nov 21:14:40 21:17:48 19° 46° (NE) 21:20:58 437.505/2401.250
AO-73 21 Nov 21:15:59 21:19:31 25° 269° (W) 21:23:00 145.935
CUBEBUG 2 21 Nov 21:20:58 21:22:19 11° 281° (W) 21:23:40 437.445
KKS-1 21 Nov 21:26:33 21:28:36 13° 323° (NW) 21:30:39 437.445
Oscar 11 21 Nov 21:31:24 21:35:01 26° 269° (W) 21:38:39 .
VELOX 1 21 Nov 21:34:36 21:35:26 10° 32° (NNE) 21:36:18 145.980
FO-29 21 Nov 21:39:33 21:47:26 65° 101° (ESE) 21:55:04 435.910
STARS 21 Nov 21:48:15 21:50:43 15° 320° (NW) 21:53:09 437.465
SO-50 21 Nov 21:55:26 21:56:50 11° 112° (ESE) 21:58:14 436.795
O/OREOS (USA 219) 21 Nov 21:58:42 22:03:14 53° 42° (NE) 22:07:43 437.305
HO-68 21 Nov 21:59:18 22:00:23 10° 292° (WNW) 22:01:27 435.675
UNISAT 6 21 Nov 22:01:40 22:05:09 23° 90° (E) 22:08:36 437.425
EO-88 21 Nov 22:02:19 22:05:54 60° 257° (WSW) 22:09:32 145.990 - 145.960
ZACube-1 21 Nov 22:04:37 22:05:50 11° 280° (W) 22:07:04 437.345
TIGRISAT 21 Nov 22:05:47 22:09:17 23° 90° (E) 22:12:44 435.000
Max Valier Satellite 21 Nov 22:06:04 22:09:35 43° 261° (W) 22:13:07 145.860
SPROUT 21 Nov 22:22:31 22:25:38 20° 49° (NE) 22:28:44 437.525
LO-87 21 Nov 22:24:02 22:27:31 47° 66° (ENE) 22:31:00 145.935 - 145.965
NO-84 21 Nov 22:25:06 22:27:25 14° 218° (SW) 22:29:45 435.350 FM
RS-15 21 Nov 22:41:26 22:53:52 82° 339° (NNW) 23:05:53 29.354- 29.394
STRAND 1 21 Nov 22:43:29 22:47:50 28° 311° (NW) 22:52:10 437.568
PRISM 21 Nov 22:45:49 22:49:10 23° 91° (E) 22:52:29 437.425
DELFI C3 21 Nov 22:46:07 22:49:01 19° 272° (W) 22:51:57 145.870
ESTCUBE 1 21 Nov 22:49:29 22:53:57 68° 67° (ENE) 22:58:27 437.505/2401.250
nSIGHT-1 21 Nov 22:50:12 22:51:04 11° 158° (SSE) 22:51:55 .
UKube-1 21 Nov 22:57:32 22:58:31 11° 33° (NNE) 22:59:28 .
VELOX 1 21 Nov 23:06:49 23:10:41 30° 54° (NE) 23:14:34 145.980
FO-29 21 Nov 23:24:48 23:32:21 52° 304° (NW) 23:39:47 435.910
POLYITAN 1 21 Nov 23:31:35 23:33:04 12° 81° (E) 23:34:33 437.675
SO-50 21 Nov 23:32:00 23:36:14 42° 134° (SE) 23:40:32 436.795
ISS 21 Nov 23:35:46 23:37:35 14° 165° (SSE) 23:39:22 437.550
UNISAT 6 21 Nov 23:38:01 23:42:21 71° 291° (WNW) 23:46:36 437.425
O/OREOS (USA 219) 21 Nov 23:38:18 23:42:38 41° 244° (WSW) 23:46:53 437.305
EO-88 21 Nov 23:39:39 23:40:22 10° 278° (W) 23:41:02 145.990 - 145.960
TIGRISAT 21 Nov 23:42:08 23:46:26 71° 292° (WNW) 23:50:41 435.000
DX 1 21 Nov 23:49:53 23:53:24 24° 51° (NE) 23:56:57 434.975-435.025
QB50P2 21 Nov 23:53:55 23:56:55 18° 87° (E) 23:59:53 145.880/145.840
SPROUT 21 Nov 23:56:41 00:00:58 78° 71° (ENE) 00:05:17 437.525
50 SAT 21 Nov 23:57:14 23:59:36 19° 55° (NE) 00:01:59 437.505
LO-87 21 Nov 23:58:01 00:01:07 26° 266° (W) 00:04:13 145.935 - 145.965
BEESAT 22 Nov 00:12:06 00:13:56 12° 32° (NNE) 00:15:47 436.000
AIST 2D 22 Nov 00:16:23 00:19:51 52° 101° (E) 00:23:19 435.315
PRISM 22 Nov 00:20:41 00:24:53 72° 291° (WNW) 00:29:02 437.425
ITUPSAT 1 22 Nov 00:21:55 00:24:08 13° 34° (NNE) 00:26:21 437.325
STRAND 1 22 Nov 00:23:47 00:25:37 12° 334° (NNW) 00:27:26 437.568
nSIGHT-1 22 Nov 00:24:18 00:26:23 16° 177° (S) 00:28:27 .
MOZHAYETS 4 22 Nov 00:25:28 00:27:38 13° 38° (NE) 00:29:48
ESTCUBE 1 22 Nov 00:27:22 00:31:10 26° 269° (W) 00:35:00 437.505/2401.250
UKube-1 22 Nov 00:29:34 00:33:23 31° 55° (NE) 00:37:14 .
DUCHIFAT 1 22 Nov 00:41:39 00:45:24 31° 94° (E) 00:49:08 145.980
VELOX 1 22 Nov 00:42:26 00:46:53 66° 256° (WSW) 00:51:22 145.980
EO-79 22 Nov 00:50:04 00:54:07 43° 99° (E) 00:58:07 145.935-145.965
PCSat 22 Nov 00:51:21 00:55:41 25° 115° (ESE) 01:00:02 145.827
NANOSAT C BR1 22 Nov 00:52:41 00:56:41 41° 98° (E) 01:00:39 145.865
RS-15 22 Nov 00:55:05 01:07:27 76° 10° (N) 01:19:14 29.354- 29.394
POLYITAN 1 22 Nov 01:05:38 01:09:48 57° 102° (ESE) 01:13:55 437.675
Gurwin Techsat 1B 22 Nov 01:09:26 01:11:55 13° 78° (ENE) 01:14:24 435.225
FO-29 22 Nov 01:09:56 01:15:58 26° 328° (NNW) 01:22:01 435.910
ISS 22 Nov 01:11:04 01:13:12 16° 185° (S) 01:15:20 437.550
SO-50 22 Nov 01:12:01 01:16:33 76° 336° (NNW) 01:21:09 436.795
UNISAT 6 22 Nov 01:15:27 01:18:26 18° 313° (NW) 01:21:24 437.425
TIGRISAT 22 Nov 01:19:33 01:22:30 18° 313° (NW) 01:25:27 435.000
DX 1 22 Nov 01:24:46 01:29:11 85° 252° (WSW) 01:33:37 434.975-435.025
50 SAT 22 Nov 01:28:08 01:31:22 69° 255° (WSW) 01:34:39 437.505
QB50P2 22 Nov 01:29:03 01:33:19 89° 283° (WNW) 01:37:31 145.880/145.840
BUGSAT 1 22 Nov 01:30:31 01:34:01 27° 93° (E) 01:37:29 437.445
SPROUT 22 Nov 01:34:03 01:37:22 22° 271° (W) 01:40:43 437.525
BEESAT 22 Nov 01:46:16 01:50:30 32° 54° (NE) 01:54:45 436.000
AIST 2D 22 Nov 01:49:53 01:52:50 25° 302° (WNW) 01:55:48 435.315
ITUPSAT 1 22 Nov 01:56:28 02:00:51 36° 56° (NE) 02:05:13 437.325
PRISM 22 Nov 01:56:40 01:59:33 18° 313° (NW) 02:02:27 437.425
MOZHAYETS 4 22 Nov 01:59:30 02:03:46 41° 60° (ENE) 02:08:04
nSIGHT-1 22 Nov 02:00:15 02:01:44 13° 198° (SSW) 02:03:13 .
UKube-1 22 Nov 02:04:56 02:09:14 59° 256° (WSW) 02:13:33 .
KKS-1 22 Nov 02:11:00 02:12:32 12° 34° (NE) 02:14:04 437.445
CUBESAT XI-V 22 Nov 02:14:36 02:18:12 23° 49° (NE) 02:21:50 437.345
Oscar 19 22 Nov 02:14:38 02:19:30 40° 97° (E) 02:24:22 437.125/150
DUCHIFAT 1 22 Nov 02:17:13 02:21:17 51° 296° (WNW) 02:25:20 145.980
VELOX 1 22 Nov 02:21:45 02:24:13 14° 277° (W) 02:26:41 145.980
EO-79 22 Nov 02:25:57 02:29:53 38° 300° (WNW) 02:33:46 145.935-145.965
NANOSAT C BR1 22 Nov 02:28:29 02:32:25 39° 299° (WNW) 02:36:19 145.865
PCSat 22 Nov 02:33:01 02:38:26 77° 138° (SE) 02:43:54 145.827
M-CUBED/EXP-1 PRIME 22 Nov 02:37:10 02:38:59 12° 89° (E) 02:40:50 437.505
POLYITAN 1 22 Nov 02:41:43 02:45:24 30° 304° (WNW) 02:49:06 437.675
Gurwin Techsat 1B 22 Nov 02:47:56 02:53:10 52° 101° (E) 02:58:22 435.225
ISS 22 Nov 02:48:40 02:48:43 10° 205° (SSW) 02:48:47 437.550
AO-7 22 Nov 02:52:21 02:58:15 20° 80° (E) 03:04:07 .
SO-50 22 Nov 02:52:57 02:57:25 54° 360° (N) 03:01:59 436.795
FO-29 22 Nov 02:54:05 02:58:42 17° 353° (N) 03:03:22 435.910
DX 1 22 Nov 03:03:00 03:06:03 18° 273° (W) 03:09:06 434.975-435.025
50 SAT 22 Nov 03:03:39 03:04:07 10° 275° (W) 03:04:36 437.505
QB50P2 22 Nov 03:05:25 03:08:38 21° 310° (NW) 03:11:50 145.880/145.840
BUGSAT 1 22 Nov 03:05:40 03:09:41 56° 294° (WNW) 03:13:37 437.445
RS-15 22 Nov 03:08:16 03:20:23 77° 221° (SW) 03:31:51 29.354- 29.394
BEESAT 22 Nov 03:23:18 03:28:04 65° 256° (WSW) 03:32:51 436.000
ITUPSAT 1 22 Nov 03:33:51 03:38:34 56° 258° (WSW) 03:43:18 437.325
MOZHAYETS 4 22 Nov 03:36:34 03:40:57 45° 261° (W) 03:45:22
STRAND 1 22 Nov 03:38:49 03:39:48 11° 22° (NNE) 03:40:48 437.568
YUBILEINY 22 Nov 03:40:16 03:44:25 14° 57° (ENE) 03:48:34 435.215
BEESAT 3 22 Nov 03:40:29 03:43:37 22° 125° (SE) 03:46:44 437.485
KKS-1 22 Nov 03:43:55 03:47:57 33° 56° (NE) 03:52:00 437.445
UKube-1 22 Nov 03:44:15 03:46:11 13° 278° (W) 03:48:07 .
CUBESAT XI-V 22 Nov 03:50:26 03:55:03 85° 72° (ENE) 03:59:44 437.345
DUCHIFAT 1 22 Nov 03:53:53 03:56:08 14° 317° (NW) 03:58:24 145.980
Oscar 19 22 Nov 03:54:01 03:59:02 54° 298° (WNW) 04:04:03 437.125/150
EO-79 22 Nov 04:03:08 04:04:39 12° 322° (NW) 04:06:09 145.935-145.965
STARS 22 Nov 04:05:23 04:09:06 27° 52° (NE) 04:12:50 437.465
NANOSAT C BR1 22 Nov 04:05:34 04:07:09 12° 321° (NW) 04:08:46 145.865
ITAMSAT 1 22 Nov 04:09:27 04:14:07 31° 93° (E) 04:18:44 435.822/435.867
M-CUBED/EXP-1 PRIME 22 Nov 04:09:55 04:14:16 52° 109° (ESE) 04:18:47 437.505
PCSat 22 Nov 04:16:51 04:22:11 53° 342° (NNW) 04:27:32 145.827
DOVE 4 22 Nov 04:21:18 04:24:00 14° 77° (ENE) 04:26:39 437.250
